SL-16 DEB, 22451

Orbit data source: Space-Track

SL-16 DEB, 22451 is space debris in LEO originally from a launch on Fri, 25 Dec 1992 UTC launched from the Tyuratam Missile And Space Complex (TTMTR). Debris objects in space refer to the collection of defunct objects orbiting the Earth. Examples of debris include non-operational satellites, rocket bodies, and fragments generated from explosions, collisions, or faulty payload assembly.

Loading next visibility...
Identifier
22451, 1992-093EQ
Orbit
LEO
Country
Flag of CISCIS
Related business
Manufacturer
Unknown
Mission
Spacecraft
Bus & Motor
Unknown
Mass
Unknown
Launch date (UTC)
1992-12-25 (33 years ago)
Launch vehicle
Unknown
Launch site
Tyuratam Missile And Space Complex (TTMTR)
Object type
Payload
Rocket body
Debris
Shape & HBR
Unknown shape, 0.1 m
Radar Cross Section
Small (<0.1 m²)

Expand to show TLE details & history
Last TLE update: 18 hours ago

TLE from 18 hours ago
0 SL-16 DEB
1 22451U 92093EQ  26037.01500973  .00000210  00000-0  17818-3 0  9991
2 22451  71.1376  35.3208 0129912  11.6617  19.2749 13.94308072681406
Epoch: 2026-02-06T00:21Z
TLE epoch observation values (Epoch: 2026-02-06T00:21:36.840Z)
Latitude
29.63286°
Longitude
-95.09575°
Altitude
827.449 km
Speed
7.488 km/s
True Right ascension
03h 05m 52s
True Declination
29° 29' 12"
Sunlit
Object was in daylight at epoch
Visualization orbit readout
Latitude
Unknown
Longitude
Unknown
Altitude
Unknown
Speed
Unknown
Apparent Right ascension
Unknown
Apparent Declination
Unknown
Sunlit
N/A
Visualization observer readout
Local Sidereal Time
20:40:31
Azimuth
Unknown
Elevation
Unknown
Doppler factor
Unknown
Orbital elements
Apogee altitude
1,006.205 km
Perigee altitude
816.802 km
Semi-major axis
7,289.641 km
Eccentricity
0.01299
Inclination
71.1376°
RAAN
35.3208°
Arg. of periapsis
11.6617°
True anomaly
19.77395°
Mean anomaly
19.2749°
Eccentric anomaly
19.52366°
Mean motion
3.48726 °/min
Orbital period
103.23 mins
BSTAR
0.00017818
Loading maneuver chart data...
Computing Atmospheric mass density...

Documentation

Showing up to 5 results
|